Theta_e
331 331 330 330 330 331 332 330 331 331 330 329 329 328 325 323 317 315 315 317 319 324 326 323 327 333 332 328 325 324 324 323 323 325 324 322 320 317 316 317 318 318 318 320 318 317 316 316 316 318 319 319 319 319 317 315 315 314 317 321 320 318 315 313 312 317 319 321 321 316 317 316 313 312
332 332 331 330 330 331 332 331 332 331 329 328 329 328 327 326 321 319 315 316 322 322 325 326 324 328 329 328 324 323 322 322 322 323 324 323 322 315 315 314 312 312 315 315 313 312 313 315 317 320 318 318 317 315 314 314 313 314 319 320 320 319 317 314 314 315 316 317 317 316 317 315 314 314
330 330 330 330 330 331 331 331 332 331 329 330 330 328 328 326 325 323 320 316 322 325 321 326 329 328 328 327 323 322 322 323 321 321 323 323 319 316 316 313 312 312 313 311 312 314 313 314 316 317 318 318 317 315 315 314 314 317 320 318 318 319 318 317 315 317 318 318 318 318 318 317 317 315
328 328 329 330 331 331 331 331 331 331 330 329 328 329 329 329 328 324 322 320 320 326 324 326 328 328 326 327 322 321 321 322 320 322 322 321 318 317 317 312 311 312 311 311 313 317 314 312 315 317 318 318 317 316 317 314 316 317 315 314 315 315 317 316 315 317 318 318 319 318 319 319 319 318
328 328 329 330 331 331 330 330 330 329 331 330 330 330 329 328 327 323 323 320 320 324 327 326 327 328 327 324 322 318 317 318 318 318 323 320 319 319 318 315 311 311 310 310 311 312 310 311 317 316 316 317 316 315 313 312 312 310 311 311 313 312 315 316 314 315 317 318 318 318 317 317 317 318
328 328 329 329 330 331 331 330 329 330 329 329 329 329 328 326 326 327 324 321 319 319 324 323 328 328 333 328 322 317 315 314 313 312 321 321 319 318 319 317 314 309 311 310 310 311 309 309 313 311 311 312 311 312 310 309 308 309 308 305 309 312 313 314 312 312 314 315 316 315 314 314 314 314
327 326 327 328 330 331 329 330 330 330 329 329 329 328 328 326 326 327 326 322 320 319 320 323 323 325 325 322 320 317 315 313 310 313 320 318 317 317 318 317 317 309 309 308 308 309 309 309 310 310 309 310 310 310 309 308 308 306 306 303 304 307 310 310 311 311 313 314 313 312 312 312 313 312
327 327 328 329 328 329 329 329 328 329 329 329 328 328 326 326 326 326 326 326 322 321 320 321 322 325 322 324 326 317 315 311 308 313 321 321 319 318 317 315 317 312 308 308 308 309 309 308 309 309 308 309 308 308 308 307 306 306 304 305 305 304 305 305 304 305 307 308 308 308 308 309 310 311
326 327 326 328 329 329 328 329 328 329 329 330 326 325 326 326 327 327 328 328 328 323 321 323 324 324 326 327 323 318 314 312 310 310 321 320 319 317 316 315 315 313 309 308 308 308 308 308 308 308 307 307 307 306 306 306 306 305 305 304 304 303 303 304 305 305 305 305 305 307 308 308 309 310
328 329 327 327 326 326 328 329 329 329 329 329 328 327 326 326 325 325 328 327 327 325 323 322 320 323 323 323 322 323 317 312 309 307 310 318 317 314 311 314 316 316 312 312 311 309 308 307 307 307 307 306 305 305 305 305 305 304 304 303 303 302 301 302 302 303 301 302 303 304 305 305 307 309
329 328 329 327 328 328 329 328 329 329 328 328 325 326 324 326 324 324 326 325 325 325 323 320 319 320 323 321 320 322 318 315 310 306 305 308 312 311 308 309 314 313 312 312 309 310 310 311 310 307 305 305 305 305 304 304 304 304 303 301 300 299 299 299 300 302 302 303 303 302 301 300 301 304
327 327 328 328 328 328 329 329 329 329 327 328 326 328 327 324 324 325 325 324 323 322 322 319 317 318 319 319 320 321 317 314 310 308 306 305 307 309 309 311 311 311 310 312 312 310 309 309 309 307 306 306 306 305 305 305 305 304 302 300 301 300 299 298 299 299 301 301 301 299 298 299 301 301
327 327 327 328 328 329 329 323 324 325 326 328 326 326 327 325 324 324 323 322 322 321 320 320 319 317 318 318 317 315 312 312 311 310 308 308 309 309 308 311 313 311 308 310 310 311 312 312 312 312 311 311 308 307 306 307 306 305 302 301 301 301 301 300 300 301 301 302 302 300 300 300 300 299
328 328 327 328 329 324 322 317 314 310 314 320 325 327 327 325 324 323 322 321 321 320 319 319 319 315 315 316 317 314 313 315 315 312 309 307 309 308 307 308 312 313 310 309 308 308 312 310 310 311 310 311 312 310 308 308 309 305 302 301 301 300 299 300 300 301 301 300 300 300 299 299 298 298
325 326 327 327 326 323 322 320 304 305 308 311 312 315 319 323 326 324 322 321 321 319 318 319 318 318 314 315 315 314 317 314 312 311 310 309 308 306 305 303 309 314 313 311 310 309 311 309 307 308 309 309 310 310 309 306 306 304 302 302 301 301 300 300 300 299 299 299 298 298 298 298 299 299
325 326 326 327 327 326 326 323 312 308 304 305 306 307 307 310 313 315 322 321 319 319 318 318 319 318 316 314 316 314 314 312 312 313 311 310 308 306 305 305 306 310 314 311 310 309 312 311 307 306 308 308 310 311 307 304 303 302 301 301 301 301 301 301 300 299 299 298 298 298 298 298 297 297
326 325 324 325 327 326 323 324 321 317 311 303 302 304 306 307 305 304 303 311 324 322 319 319 319 318 317 314 315 316 316 320 312 314 312 310 310 310 307 307 307 310 312 311 309 307 310 310 307 310 312 309 306 304 302 302 301 301 301 301 301 301 301 301 301 299 299 299 299 298 299 299 298 298
325 324 323 323 324 327 327 326 326 320 318 315 315 317 321 321 313 304 297 299 304 314 324 321 319 320 322 319 319 325 318 316 314 313 312 314 310 311 311 313 314 314 314 309 309 307 309 309 310 308 310 310 309 306 302 301 302 301 301 301 301 301 301 300 299 299 298 298 298 298 298 298 298 298
322 322 325 324 322 324 326 326 320 323 321 320 320 321 322 322 321 321 319 319 320 322 324 325 323 322 321 323 323 323 326 322 317 315 314 315 316 319 318 317 315 312 313 315 311 305 307 313 313 311 310 309 306 305 301 301 301 301 301 301 301 300 300 299 299 298 298 298 298 297 297 297 297 297
320 314 314 321 323 323 322 316 304 312 324 323 322 321 322 321 312 303 296 292 294 302 320 322 312 306 301 299 304 303 313 323 324 321 324 322 320 318 317 314 313 312 314 315 315 310 310 315 314 311 309 308 306 306 305 301 302 301 301 300 300 300 299 299 298 298 298 298 297 297 297 297 296 296
310 307 305 306 312 321 323 312 302 305 310 324 323 322 320 316 311 307 304 295 293 294 293 293 293 293 294 295 296 296 296 304 315 321 317 317 316 315 314 313 311 309 310 309 307 313 312 313 312 310 309 308 305 305 304 303 301 301 300 300 300 300 299 299 298 298 298 298 297 297 297 297 297 297
310 306 303 303 298 301 308 301 300 300 311 321 321 321 316 314 310 308 308 306 301 294 294 295 295 296 297 298 299 297 298 299 307 319 314 317 316 313 313 310 309 308 308 304 304 311 311 311 310 308 309 309 310 307 306 305 303 299 299 299 300 300 299 298 297 297 298 298 297 298 297 297 298 301
303 301 302 299 294 294 294 290 295 298 311 322 320 321 316 313 311 308 308 307 306 307 307 308 309 307 306 309 308 306 300 301 306 311 311 313 314 312 311 310 308 307 304 305 303 309 307 306 307 306 302 301 307 309 306 306 303 303 302 301 300 299 299 297 296 298 299 298 298 298 298 298 298 301
298 297 297 297 292 290 290 291 290 291 293 318 322 321 318 314 310 310 309 310 310 309 310 310 310 309 309 308 307 307 306 307 307 307 309 310 311 311 312 310 310 307 304 304 300 303 303 303 300 302 301 300 298 306 308 306 305 304 305 304 303 301 299 297 297 297 298 298 298 298 298 299 299 300
294 294 295 295 293 290 290 291 291 292 292 295 316 320 319 317 310 307 310 309 306 311 309 308 308 308 307 306 305 304 304 304 305 305 305 307 309 307 306 305 302 299 301 302 298 306 303 303 301 304 300 301 301 304 306 306 305 304 305 306 305 306 303 302 299 299 296 296 295 295 296 297 298 299
293 293 293 294 292 290 290 290 291 291 292 293 307 311 299 298 300 311 311 311 311 309 307 307 305 305 304 303 302 302 303 303 303 303 304 304 305 307 307 305 301 298 298 303 300 307 305 302 304 301 301 301 301 301 302 304 305 305 305 304 303 303 305 304 302 301 300 298 297 297 296 296 297 297
292 293 293 294 292 291 291 290 291 291 292 294 292 292 296 297 298 304 310 309 308 308 307 306 304 302 302 301 300 301 301 302 302 303 303 303 302 302 303 303 304 302 304 306 307 307 306 303 303 302 301 302 300 300 300 301 302 304 302 301 302 303 302 300 301 301 301 300 298 295 294 294 294 294
293 292 292 292 290 291 291 291 291 291 291 292 291 292 292 296 300 309 308 307 307 304 304 303 302 302 302 301 301 301 302 302 302 303 302 302 303 303 303 304 303 304 305 306 307 307 305 302 302 303 303 301 299 298 297 300 299 299 299 302 302 300 301 301 300 299 300 299 296 297 298 297 297 296
293 291 290 290 290 290 291 291 292 292 291 291 291 292 293 297 299 301 302 301 300 298 297 297 298 298 299 300 301 303 303 302 301 301 301 302 303 303 303 302 302 303 305 306 306 306 305 304 302 304 303 301 300 300 299 297 297 298 297 297 296 297 300 300 299 298 298 299 298 298 296 295 294 296
291 291 291 290 291 291 291 293 292 292 292 291 291 292 294 296 296 297 297 297 296 295 295 295 295 296 298 298 299 301 301 301 300 300 300 300 300 300 299 298 298 300 301 302 303 304 303 302 302 301 302 301 299 298 297 297 297 299 297 296 295 297 299 299 298 298 297 297 297 296 297 296 295 296
294 292 292 291 290 291 290 291 291 291 291 292 293 293 293 293 294 294 295 295 295 294 294 294 294 295 296 297 297 297 297 297 298 300 300 299 299 299 298 297 296 296 298 299 300 301 302 302 301 300 298 298 298 297 298 298 296 297 296 296 296 292 296 297 297 296 296 297 298 297 297 295 295 296
293 292 291 291 291 291 291 291 291 291 291 290 290 291 292 292 292 293 293 293 293 294 295 295 295 295 295 294 295 295 295 295 296 298 298 299 298 298 298 295 294 296 297 298 300 300 297 301 300 299 299 298 297 297 298 297 296 296 295 296 296 296 296 295 296 295 296 295 294 294 295 294 294 295
291 290 289 288 288 288 287 287 288 288 289 288 289 289 290 291 291 291 291 290 290 291 292 291 292 292 293 293 294 294 294 294 295 297 297 298 298 298 298 296 296 296 296 296 298 299 299 299 299 299 298 297 297 297 296 293 295 295 294 295 295 295 295 295 295 296 296 294 294 295 294 295 295 294
289 288 287 287 286 286 286 286 286 286 286 286 286 287 287 288 289 289 289 289 289 289 289 290 289 290 290 290 292 292 292 293 294 294 293 296 296 295 294 294 295 296 295 295 296 297 298 298 298 298 297 295 296 295 296 294 293 294 295 294 294 293 294 295 295 296 295 295 293 291 292 294 296 295
288 287 287 286 286 286 286 285 285 286 286 285 286 286 286 287 286 287 287 288 288 287 287 288 288 288 289 289 290 290 290 291 293 293 293 294 295 294 294 293 294 294 294 293 294 296 298 297 297 296 295 294 293 294 296 295 293 294 294 293 293 294 293 295 294 295 296 296 295 288 290 293 293 294
289 288 287 286 286 286 286 286 286 286 286 286 286 286 286 286 286 286 286 288 289 288 287 287 287 287 288 289 289 290 289 289 291 291 290 291 290 291 293 293 293 294 294 294 294 296 297 296 296 294 291 290 287 285 287 294 294 294 291 289 293 292 293 293 293 295 294 293 293 290 287 288 290 292
289 289 288 288 288 287 286 287 286 286 286 286 286 286 286 286 287 288 289 288 289 288 288 288 288 288 288 289 289 289 289 289 289 289 289 291 291 291 289 289 290 292 292 294 294 294 295 293 293 292 291 288 287 286 286 289 292 294 294 289 288 291 290 291 292 290 293 294 293 291 289 286 287 290
290 291 290 289 289 289 288 288 288 287 287 287 287 287 288 289 289 290 291 290 288 288 288 288 288 288 288 288 288 288 289 289 289 288 289 289 288 289 290 289 290 292 292 292 294 293 294 293 292 291 290 287 287 285 285 287 288 290 292 293 288 288 291 290 288 289 290 294 292 292 292 288 289 290
293 291 291 291 291 291 289 289 288 288 289 288 288 288 288 288 289 289 288 289 289 288 288 288 288 288 288 289 288 288 288 288 288 288 288 289 290 290 289 288 288 289 290 290 292 292 292 292 292 292 291 289 286 287 287 287 286 288 290 291 293 289 289 289 288 288 290 289 292 294 292 290 288 286
293 293 292 292 292 292 292 291 290 290 289 289 289 290 289 288 288 288 288 287 288 288 288 288 288 288 288 289 288 288 288 289 288 288 288 288 287 288 287 287 288 288 288 289 289 291 291 290 292 293 291 291 290 288 288 287 287 287 288 289 290 292 289 289 288 287 287 290 291 288 288 289 288 289
292 292 292 293 292 292 291 291 291 291 291 291 291 290 290 290 288 288 288 288 287 287 288 288 288 288 289 290 289 288 287 287 287 287 287 287 287 287 287 286 287 288 288 288 289 289 290 292 291 288 295 291 291 292 287 286 285 286 286 289 291 288 287 290 291 288 286 288 288 286 287 287 286 287
292 292 292 293 293 292 292 292 291 291 290 290 289 288 289 288 288 289 288 288 288 288 288 288 288 287 288 288 288 288 287 287 286 287 287 287 287 287 287 288 287 287 288 288 288 289 292 293 291 294 292 288 288 287 287 287 286 286 286 287 288 290 289 288 288 289 290 287 285 283 285 285 287 287
292 293 292 292 293 293 293 292 291 291 290 289 289 289 288 288 288 288 288 288 287 287 287 287 287 287 287 287 287 287 287 287 286 286 286 287 287 287 286 286 287 288 288 288 288 289 290 292 293 291 290 290 289 287 286 287 287 287 287 286 287 287 288 290 289 288 288 286 287 288 287 285 284 284
291 292 292 292 292 292 292 292 291 291 291 290 289 289 288 288 287 287 287 287 287 287 287 287 287 287 287 288 287 286 287 287 287 286 286 286 286 286 287 287 287 287 288 288 287 287 288 288 289 288 288 288 288 287 287 287 287 287 287 286 286 286 286 286 285 288 288 288 286 284 284 287 289 289
291 291 291 291 291 291 291 291 292 292 292 289 289 288 288 287 287 287 287 287 287 287 287 287 287 287 287 287 287 287 287 288 288 287 287 286 287 287 287 287 287 286 287 287 288 287 287 287 289 288 288 288 288 287 287 287 287 287 287 287 288 287 287 287 286 285 286 288 289 287 285 284 285 287
Wind_Speed
8 8 9 8 7 7 7 8 7 7 6 6 6 6 8 7 8 7 7 7 7 7 7 6 5 6 6 6 3 11 9 12 13 9 9 8 7 12 14 14 14 13 13 11 11 12 12 11 12 12 13 13 14 13 12 11 10 9 8 6 6 5 6 5 4 3 2 3 2 2 4 7 6 6
7 7 8 7 7 7 6 7 7 7 7 6 7 6 6 4 7 7 9 7 6 6 4 4 5 7 7 7 6 8 9 15 14 10 9 9 8 14 15 15 14 14 13 12 11 12 12 12 12 12 13 14 13 13 12 11 10 9 8 9 7 7 6 6 6 5 5 5 4 5 5 6 7 7
5 8 9 8 8 7 7 7 7 6 6 7 6 6 8 10 7 7 6 6 5 5 7 6 4 8 8 8 9 9 10 14 13 10 9 10 12 16 12 15 15 14 14 13 12 12 12 12 12 13 13 13 13 12 11 11 10 9 9 8 8 8 7 7 7 7 8 8 8 7 7 8 8 9
9 10 9 9 8 6 7 7 6 6 6 7 7 7 7 7 6 6 5 5 6 4 6 5 4 5 9 12 10 10 9 13 16 9 10 11 16 11 8 14 15 15 15 14 13 13 13 13 13 13 13 12 13 12 12 11 10 10 10 9 9 8 8 7 7 8 9 9 9 9 9 8 9 9
10 11 10 9 8 7 7 6 6 7 9 8 7 7 6 6 6 7 6 6 4 2 3 7 8 7 3 11 10 11 11 11 9 9 9 12 11 10 8 9 14 15 15 15 14 14 14 14 13 14 14 13 13 12 12 12 11 11 10 10 9 9 8 8 8 8 8 8 9 9 9 9 9 10
7 9 9 10 9 9 8 7 7 8 8 9 9 6 7 7 6 7 8 7 7 5 3 5 3 4 2 3 6 11 12 11 10 7 8 9 11 10 9 9 9 16 15 15 16 15 15 14 14 14 13 14 13 13 13 12 11 11 10 10 9 9 9 9 8 8 7 8 8 7 7 8 9 9
9 11 9 8 8 6 7 8 8 7 9 9 8 8 6 8 7 8 8 7 6 8 6 7 7 6 5 8 9 12 12 12 12 8 10 11 9 9 10 10 8 15 16 17 16 16 15 15 14 14 14 14 13 13 12 12 11 11 10 10 10 10 10 10 9 8 7 7 7 6 7 8 8 9
8 10 8 5 2 4 8 7 7 7 7 7 6 6 8 7 8 7 6 6 6 7 7 7 9 7 8 11 5 10 10 12 10 8 10 11 11 11 11 11 9 13 19 18 17 17 16 16 15 15 14 14 13 12 12 12 12 11 11 11 11 11 10 9 8 7 6 6 6 7 8 9 10 12
9 9 10 6 5 6 7 6 8 7 7 5 5 7 8 7 7 7 6 6 6 7 7 5 3 6 2 4 9 5 12 10 9 9 11 11 10 9 12 10 11 17 21 19 18 17 17 16 16 16 15 14 14 13 13 13 12 12 12 12 11 9 8 7 6 6 6 7 7 7 8 8 10 11
6 4 9 8 7 7 8 7 7 6 7 5 5 5 8 10 9 7 6 6 5 7 7 7 4 4 6 2 6 6 10 11 10 9 9 10 10 9 10 11 8 6 8 7 10 13 14 16 17 17 15 15 15 14 14 14 13 13 12 10 9 8 8 7 6 7 7 7 7 7 7 8 9 10
3 5 8 7 7 9 8 7 7 6 4 5 4 8 8 9 7 7 6 7 7 7 7 5 6 6 4 7 9 9 9 12 11 10 8 7 8 8 10 6 7 9 11 13 17 15 14 14 12 14 15 16 16 15 15 14 14 12 11 10 9 9 8 7 8 7 7 6 6 6 6 7 7 8
4 4 6 9 7 8 8 7 7 6 7 5 9 7 9 10 9 8 7 7 7 7 5 7 7 5 7 9 11 10 11 11 9 9 9 8 7 7 7 6 9 7 10 9 7 8 10 11 14 15 16 17 16 16 14 14 13 13 12 11 10 7 7 8 7 6 6 6 6 6 6 6 6 6
5 4 7 9 10 9 9 8 6 5 6 4 5 6 8 10 10 8 7 7 8 7 6 7 6 7 7 9 10 10 8 12 12 9 9 7 7 7 7 7 10 10 10 8 9 9 10 9 9 9 8 10 13 12 13 10 14 14 11 11 8 8 7 6 5 5 5 4 4 4 4 5 5 5
3 3 5 9 19 16 8 9 11 8 11 10 7 7 8 10 9 9 8 8 8 8 8 8 7 9 9 9 10 11 8 6 10 9 10 8 7 7 8 6 7 10 10 8 8 9 9 9 8 8 9 9 11 9 8 9 11 12 12 10 9 8 6 5 4 3 1 1 2 3 3 4 4 5
4 4 2 4 7 12 11 8 9 10 13 12 14 12 12 12 10 10 9 9 9 9 9 8 7 6 8 9 11 11 5 5 9 9 8 8 7 7 9 8 5 10 11 9 9 8 9 9 9 10 10 10 9 9 10 16 13 12 13 12 9 8 7 5 5 4 2 1 1 1 2 3 3 4
2 2 3 2 3 5 8 4 6 6 9 13 13 12 9 7 6 8 9 10 8 8 8 8 8 8 6 8 4 10 7 5 7 7 8 8 9 8 7 7 7 8 12 10 9 9 8 11 9 9 10 9 8 10 12 14 14 12 13 12 11 11 9 8 7 7 6 4 3 2 2 3 4 5
2 1 3 4 3 6 8 3 2 2 4 3 9 12 14 14 13 7 10 8 6 5 7 8 7 9 6 9 8 6 7 2 4 5 7 8 8 7 8 8 7 7 12 9 8 8 9 10 10 3 4 4 6 8 12 16 16 16 15 14 13 11 11 9 8 7 6 5 3 3 3 4 5 5
2 2 4 4 4 2 3 4 4 3 4 6 6 5 4 4 5 6 10 9 6 2 4 4 6 6 3 5 4 1 8 11 7 8 3 5 8 7 6 4 5 6 9 11 6 5 7 10 6 8 4 6 7 7 13 18 17 17 16 15 13 12 11 10 8 7 6 5 3 2 3 3 5 7
1 5 5 0 2 2 2 3 3 3 2 1 2 3 6 5 1 1 1 1 1 2 1 0 3 4 6 4 4 2 2 4 7 9 8 5 4 4 4 4 3 4 4 4 6 6 3 6 10 7 7 7 8 6 10 16 17 17 16 15 14 13 12 11 9 8 6 5 3 1 3 5 7 5
7 8 7 3 2 2 5 7 7 6 9 9 8 6 3 4 5 4 1 1 2 3 1 4 6 7 5 5 6 3 4 1 3 6 5 3 4 7 5 5 2 4 4 8 3 3 4 9 11 7 6 8 8 7 5 8 15 15 15 14 14 13 12 11 10 9 7 5 5 4 4 5 7 13
6 7 9 8 7 3 3 3 11 14 10 8 7 7 7 4 5 3 2 8 11 10 13 14 13 11 11 11 11 12 12 8 3 4 5 5 6 7 6 4 4 3 4 6 7 2 7 5 10 9 7 8 9 8 8 6 9 14 14 14 14 13 12 11 11 10 9 8 5 2 3 6 7 16
7 9 16 15 9 8 8 6 13 12 7 1 3 3 8 7 6 4 3 5 6 9 12 13 13 13 13 13 13 13 13 14 9 1 6 5 6 6 7 5 4 2 5 5 4 2 6 7 6 9 7 7 6 8 7 7 5 7 9 11 11 11 11 12 12 11 10 8 5 2 7 8 9 6
10 10 12 18 15 11 10 12 5 3 5 7 5 5 7 7 6 6 6 6 7 5 6 6 7 8 9 7 7 9 15 14 10 7 5 3 4 8 7 10 7 4 2 3 6 5 4 7 4 6 5 2 3 4 7 6 5 4 4 4 4 7 10 11 12 13 10 7 7 8 9 10 7 6
10 11 11 12 20 20 16 16 11 7 6 3 5 5 5 6 5 6 5 5 6 6 5 6 6 8 7 6 7 7 8 8 8 8 6 5 4 1 9 11 9 6 2 2 6 4 2 3 3 3 3 6 3 3 4 5 5 5 5 5 4 8 6 6 7 11 10 8 8 9 11 11 8 5
10 10 10 9 17 20 16 15 16 14 9 4 2 4 6 4 10 9 5 7 8 6 7 6 7 7 7 7 6 6 7 7 6 6 7 6 5 7 6 6 9 8 3 1 6 1 3 3 4 3 5 5 4 6 5 6 6 5 7 6 5 5 6 6 5 5 7 10 10 9 8 8 11 7
10 11 10 10 14 18 20 15 17 18 17 17 6 5 11 17 16 8 6 6 6 7 6 6 6 6 6 6 6 6 6 7 7 7 7 7 8 8 5 10 12 9 3 2 7 6 6 5 3 4 3 4 3 5 5 3 5 6 5 5 5 3 1 7 7 5 5 6 5 5 6 7 10 11
10 9 9 9 18 19 20 19 18 18 19 14 14 11 12 15 15 11 6 6 6 6 6 5 6 6 6 5 5 5 6 6 6 7 7 9 10 11 10 10 9 10 5 5 6 4 5 4 2 5 4 4 5 4 4 6 4 3 5 4 5 3 4 4 7 5 6 6 5 9 7 7 11 10
10 12 9 11 19 19 20 19 17 20 18 14 19 19 16 11 9 6 7 6 5 7 7 6 5 6 6 6 5 5 5 5 5 7 8 9 10 11 10 9 9 8 8 7 7 7 10 8 5 3 5 5 6 5 5 3 6 5 6 3 5 5 5 9 7 6 7 7 6 5 4 3 3 5
10 13 17 18 18 19 19 19 17 16 19 21 19 20 18 14 10 9 7 8 9 9 9 8 8 8 7 6 7 6 6 7 7 8 7 7 8 9 9 10 8 7 6 6 7 6 7 7 4 1 2 4 5 4 4 3 3 4 4 6 4 6 9 7 7 6 6 5 6 6 6 6 5 7
15 16 16 18 17 16 16 14 12 11 13 18 19 19 17 12 11 10 10 9 10 9 8 8 8 6 6 7 6 6 5 5 6 6 7 7 7 7 8 9 9 9 8 8 7 6 6 7 5 4 4 6 7 7 5 5 4 3 6 6 6 8 7 8 7 6 5 6 6 6 6 6 6 6
9 12 12 11 13 13 16 16 13 13 16 16 14 12 12 11 10 11 11 10 10 9 8 8 8 7 6 7 9 7 6 7 6 4 5 6 6 7 7 9 8 8 6 6 6 6 5 6 8 8 8 6 7 6 4 5 5 5 6 5 7 6 3 6 6 5 5 4 4 6 5 6 6 5
8 8 10 12 11 11 12 12 11 11 11 12 12 11 10 10 10 12 15 15 12 9 7 6 7 8 9 9 7 7 8 7 7 6 5 5 7 6 7 8 8 6 5 5 6 9 9 7 7 8 9 7 7 5 5 6 5 4 6 7 7 6 6 7 6 5 3 4 6 5 5 6 5 4
10 10 12 11 11 11 10 10 10 10 10 10 11 12 11 10 10 10 10 11 10 9 9 9 8 7 8 8 8 8 9 9 8 7 7 7 5 5 6 7 6 6 6 6 5 6 7 7 9 10 9 9 8 7 6 7 6 5 6 6 6 6 5 5 6 3 3 5 4 3 5 5 5 3
8 9 8 9 9 9 9 9 9 9 9 9 10 10 10 10 10 10 10 10 9 8 8 7 8 8 8 8 9 9 9 8 8 8 8 6 7 7 6 7 6 6 7 6 5 5 5 6 7 8 9 9 9 10 7 6 5 5 5 6 6 6 6 6 4 3 4 4 5 4 4 3 3 4
8 8 8 8 8 8 8 9 9 8 8 8 7 7 7 8 8 8 9 8 7 8 8 8 7 7 8 8 8 8 7 7 8 8 7 8 8 7 6 7 6 6 5 5 5 5 5 6 6 5 5 5 6 6 9 7 5 5 5 6 5 6 5 4 3 3 5 4 3 4 4 3 2 3
6 6 6 6 7 7 8 8 7 8 8 8 7 6 7 7 7 7 7 6 7 6 7 6 6 6 6 7 7 7 7 7 7 7 6 7 7 6 5 5 5 5 5 4 3 3 5 5 5 5 5 4 5 5 5 9 7 4 6 3 4 4 3 3 4 3 5 3 3 4 3 1 1 4
4 4 5 6 6 6 6 6 6 7 8 7 7 7 7 7 6 6 6 6 7 6 6 6 6 5 5 5 5 5 5 5 5 4 4 3 4 4 4 5 5 6 5 4 4 5 4 5 5 5 6 6 6 5 2 2 8 8 5 5 3 3 1 1 3 3 3 2 1 4 2 2 2 3
4 4 5 4 5 5 6 6 5 6 6 6 6 6 6 6 6 7 5 6 6 5 5 4 4 4 4 4 4 4 3 3 4 4 4 4 3 3 3 3 3 3 4 4 5 4 4 5 5 5 6 7 7 5 3 1 1 4 6 3 3 2 3 5 4 3 2 1 2 1 2 6 5 3
5 5 5 5 4 4 5 5 5 6 6 5 5 5 5 6 6 5 5 5 5 4 4 5 5 4 4 3 3 3 4 4 5 5 4 3 3 3 4 4 5 5 6 5 7 7 6 7 7 7 7 6 4 4 5 5 3 3 3 6 2 2 2 2 1 2 2 2 1 3 5 3 3 4
4 4 4 5 4 4 3 4 4 3 4 4 4 4 5 5 4 5 4 4 4 4 4 4 4 4 4 4 4 4 5 4 4 4 4 4 4 4 4 4 4 5 7 7 5 6 6 5 5 6 6 5 4 3 5 6 3 2 1 3 7 5 3 4 5 3 3 4 3 3 3 2 2 1
4 5 4 4 4 3 3 3 3 3 4 4 4 4 4 4 4 4 4 4 4 3 4 4 3 2 1 0 1 4 4 4 4 4 4 4 4 3 3 4 1 5 7 6 6 5 5 4 2 1 4 4 3 3 4 4 3 3 2 0 3 3 4 5 3 3 1 2 3 2 5 4 4 3
4 5 4 3 3 3 2 3 4 5 5 4 4 4 3 3 3 3 5 3 1 1 0 1 1 3 5 5 5 5 5 5 3 2 1 1 1 1 2 1 2 6 6 6 5 4 4 3 3 3 2 3 1 1 2 5 4 3 3 1 0 3 4 5 7 5 2 3 4 3 2 4 3 2
6 3 3 3 3 2 2 2 4 4 3 2 2 2 1 0 1 2 0 0 2 3 4 5 5 5 5 4 5 5 5 4 4 4 5 4 3 4 4 4 4 3 6 5 4 4 4 3 2 1 1 0 1 2 4 4 5 6 3 2 1 0 0 4 5 4 3 2 1 3 2 2 1 1
8 6 5 4 4 4 4 4 3 3 2 1 1 1 0 1 3 4 4 4 4 3 3 3 3 5 5 5 5 3 3 2 3 4 4 4 4 3 1 1 3 4 6 6 5 4 4 5 4 4 2 1 3 4 3 4 4 5 5 3 3 3 2 0 1 3 4 3 3 2 1 1 2 2
7 7 7 6 6 5 5 3 2 1 1 1 1 2 3 5 4 3 3 4 4 5 6 5 5 5 3 3 3 2 1 3 1 1 2 2 0 1 3 4 1 5 5 4 6 5 4 3 1 3 3 4 3 4 4 3 3 4 3 1 1 4 5 4 4 2 1 2 3 3 3 2 2 3
Wind_Direction
196 200 195 199 203 200 187 190 192 192 181 184 187 179 184 180 174 176 197 203 191 209 170 172 185 176 213 204 172 140 148 153 153 152 153 157 166 165 159 157 156 156 160 160 162 165 168 166 158 154 153 153 154 154 155 154 153 155 157 159 152 145 155 150 161 166 187 203 126 65 197 174 177 187
200 197 196 203 209 201 197 196 193 183 181 181 196 190 175 210 201 178 187 196 191 188 187 170 154 196 200 197 166 146 147 159 161 157 157 160 169 168 164 161 160 161 162 161 164 169 170 168 162 160 159 159 159 160 161 163 165 170 177 176 174 178 181 183 185 195 204 215 214 203 204 199 206 209
243 204 198 206 210 198 199 199 197 183 176 190 193 195 170 202 212 177 166 164 197 181 182 184 174 181 210 195 176 150 150 167 169 162 152 167 164 166 167 166 165 165 165 163 165 170 170 172 168 167 167 166 166 165 170 173 176 183 187 186 188 189 192 197 203 210 219 227 232 232 223 219 219 229
226 229 203 204 207 204 198 196 193 192 191 189 197 197 181 174 183 167 160 181 165 188 169 144 194 192 205 217 179 147 153 170 181 166 162 162 158 165 169 173 170 170 169 168 169 172 171 174 174 173 174 174 172 173 177 181 185 188 189 193 198 200 203 207 213 223 232 239 242 249 250 243 242 243
237 221 209 200 208 205 206 197 194 197 200 193 195 188 177 174 172 168 172 181 137 113 114 154 186 203 225 231 176 144 156 171 184 191 157 151 160 167 169 177 178 175 174 173 173 175 174 176 177 177 177 177 176 178 180 184 189 190 195 201 207 210 214 218 222 229 239 247 250 254 257 260 263 264
250 247 212 204 198 201 206 203 200 196 199 190 192 186 176 181 174 180 174 183 165 157 137 157 186 155 158 241 185 148 156 171 182 179 136 156 163 170 167 173 185 183 179 178 178 177 178 178 180 179 180 179 181 182 184 186 190 194 199 207 213 218 222 225 228 231 237 245 253 262 271 275 276 276
245 241 232 219 192 181 206 207 210 201 198 195 187 187 180 188 176 197 195 173 169 163 174 169 175 178 186 200 206 152 162 166 181 163 156 161 171 170 172 175 182 185 183 183 181 181 180 181 181 181 184 185 186 187 187 189 192 198 204 210 217 224 227 229 232 236 239 250 262 273 275 277 278 280
270 275 263 232 172 202 212 207 215 217 207 205 153 166 180 193 174 195 212 192 170 172 161 180 175 172 178 222 257 150 159 162 182 169 164 170 181 175 173 177 181 184 186 185 185 184 184 184 185 185 187 189 190 191 191 193 197 202 207 212 217 223 230 235 241 250 262 270 275 274 278 280 282 283
253 238 234 232 203 214 213 210 212 207 217 187 167 179 162 194 193 190 197 187 170 160 159 136 141 149 109 199 235 182 158 170 180 187 175 183 189 183 169 179 181 177 186 186 187 186 186 187 188 189 189 191 193 195 197 199 203 206 210 214 218 224 231 241 248 252 251 254 257 263 269 274 279 282
266 247 228 218 201 215 220 214 214 211 214 200 171 118 132 186 203 185 185 180 164 163 159 145 139 139 145 223 234 245 172 169 175 194 196 182 186 189 172 182 171 130 168 174 193 191 191 192 191 191 192 194 197 199 201 204 207 211 214 215 217 222 230 236 242 246 249 255 265 269 273 279 284 288
267 263 248 246 210 208 212 211 211 214 204 204 90 143 163 179 190 186 187 177 174 165 147 145 155 147 151 161 239 245 208 176 174 175 199 197 183 181 178 167 145 159 176 191 185 186 191 191 193 197 198 200 203 203 205 208 210 212 213 211 213 218 222 230 238 247 256 264 270 279 285 288 289 291
271 279 272 266 240 217 210 207 202 203 218 172 163 173 155 164 183 189 177 175 177 170 161 156 168 176 159 176 219 224 204 174 176 184 187 190 188 176 177 150 152 161 165 175 190 206 194 192 198 200 204 207 207 207 209 211 211 212 209 207 209 208 214 229 240 249 258 267 273 276 281 284 284 284
247 247 266 266 260 230 213 210 213 195 196 158 161 161 160 171 177 171 170 169 177 179 173 170 172 184 181 192 210 223 208 175 180 178 178 177 184 163 165 154 157 157 169 181 178 188 190 193 200 200 206 219 213 217 211 211 214 213 205 202 192 202 214 223 233 248 255 266 280 292 293 289 287 286
279 243 236 244 255 251 213 201 207 201 201 196 190 175 174 170 178 173 169 172 174 177 178 188 184 183 199 197 207 220 220 180 168 166 167 167 181 159 165 172 162 167 164 169 179 196 187 193 196 193 210 215 195 208 194 216 207 203 195 183 189 192 195 202 215 217 237 306 321 300 288 284 286 283
290 309 270 265 268 263 239 213 176 182 185 174 178 173 171 178 176 177 175 176 173 176 181 188 198 196 193 208 196 210 213 180 157 163 162 162 174 169 165 185 175 172 165 172 179 193 187 185 195 201 208 206 194 191 201 207 196 171 180 181 168 166 163 153 141 121 144 147 202 249 290 304 302 303
278 296 311 273 173 248 271 261 176 178 178 173 173 178 173 192 215 200 181 167 173 181 180 191 198 200 204 209 188 192 209 195 158 162 161 166 175 179 173 178 181 184 167 175 179 192 184 187 196 200 207 203 191 188 189 172 162 148 146 144 148 143 140 142 143 147 135 126 101 68 28 346 340 327
276 109 286 301 238 231 219 222 317 182 129 137 159 177 181 175 195 171 104 147 170 188 194 194 198 202 195 191 203 191 168 36 206 160 160 177 172 180 184 187 180 191 181 166 175 182 187 180 195 124 30 80 91 105 122 133 135 133 134 135 136 140 143 141 134 126 117 114 99 56 11 357 325 315
24 354 291 282 296 231 147 197 207 231 190 155 148 153 150 170 196 120 124 140 139 173 220 198 202 204 180 177 182 178 155 172 188 170 208 184 180 182 188 198 180 184 178 185 162 178 173 187 120 104 93 92 86 95 122 125 128 130 133 137 141 144 142 136 135 129 124 119 85 53 347 306 292 274
192 259 264 296 306 342 133 159 258 196 232 145 127 161 168 168 183 51 45 55 113 132 254 222 96 57 22 53 59 19 43 152 171 171 197 217 179 147 109 69 76 135 151 141 140 179 199 118 105 117 120 104 96 103 123 128 131 134 139 144 146 147 149 146 140 138 126 109 93 152 254 267 273 334
25 16 5 345 148 187 217 207 123 209 199 188 188 184 177 107 96 57 58 278 300 1 321 86 99 101 87 54 73 21 5 53 116 124 128 141 126 127 120 124 64 66 32 35 55 122 64 108 118 124 121 116 105 102 86 126 135 143 148 150 153 153 150 149 148 145 132 138 183 195 262 313 6 74
57 32 11 358 346 311 256 177 174 203 196 186 191 191 165 137 124 104 105 62 57 69 85 95 100 100 86 69 53 35 29 30 353 139 137 181 156 134 137 121 92 39 21 34 31 74 122 131 120 129 134 124 129 131 140 163 164 153 157 158 160 158 154 155 159 150 153 174 177 143 325 335 25 101
36 34 32 22 358 345 341 339 199 217 197 324 315 185 141 147 137 134 114 83 53 75 92 98 100 96 87 74 58 49 41 29 20 320 192 175 143 145 143 131 109 67 36 20 357 86 116 118 111 115 120 112 124 141 147 159 148 169 164 162 157 162 168 169 166 152 167 168 155 72 5 2 354 98
19 10 10 15 9 351 342 359 36 16 248 195 192 184 159 150 152 153 148 125 124 127 105 96 97 79 70 64 65 52 47 43 41 52 50 7 175 159 141 129 125 90 332 358 344 100 76 101 111 119 120 99 123 134 146 155 154 163 162 162 186 205 189 177 156 155 160 141 86 50 32 10 17 49
11 7 3 3 3 349 2 9 15 56 26 204 206 200 189 158 141 138 143 143 128 123 122 114 99 97 82 73 59 49 46 44 40 45 37 40 20 227 152 147 143 133 120 307 355 85 77 72 79 44 117 129 115 144 132 148 160 169 167 171 189 218 197 137 154 157 145 113 83 60 37 35 38 48
11 7 3 2 357 353 357 24 19 19 25 13 211 174 216 163 133 139 142 148 142 120 108 104 98 94 93 80 72 64 54 46 41 44 45 40 62 94 93 95 104 103 97 294 305 111 101 93 95 63 57 72 103 120 164 155 162 170 189 181 182 188 179 165 143 136 113 93 86 75 52 43 54 64
18 10 2 4 359 4 359 13 39 27 24 24 10 124 127 127 131 129 136 139 121 116 118 115 108 104 88 80 77 74 72 67 60 57 48 50 55 39 82 126 124 118 123 333 24 50 90 46 71 93 77 84 86 103 130 157 144 174 156 130 111 134 96 106 138 150 124 112 105 94 78 60 65 59
13 7 5 360 12 16 9 6 26 38 32 30 27 25 120 122 116 120 124 117 124 132 126 110 101 99 101 94 86 81 82 74 67 66 63 69 68 67 60 50 75 102 119 90 75 68 78 89 48 103 106 112 133 156 143 135 147 152 100 101 108 78 88 51 71 93 124 129 120 102 89 90 78 68
7 10 6 12 17 22 18 6 15 36 37 37 39 37 24 65 91 124 141 150 125 98 89 87 85 84 83 87 82 76 79 88 86 77 73 71 76 83 86 83 82 84 86 67 58 64 92 101 69 65 119 143 124 133 141 99 134 143 118 125 101 93 63 71 84 77 97 116 130 155 143 87 75 85
13 13 14 17 21 25 26 15 6 25 33 30 40 41 32 29 46 45 57 66 82 84 81 85 79 69 65 70 81 90 88 82 77 81 80 76 78 79 77 74 62 54 59 67 71 70 71 90 111 125 84 68 91 114 103 138 117 106 139 111 73 47 73 77 75 67 67 91 115 104 93 106 83 53
15 16 16 17 17 24 26 30 22 21 26 35 32 40 45 40 41 50 55 58 66 74 74 69 72 68 62 54 48 50 59 73 85 98 101 101 89 84 86 78 61 50 47 47 55 68 70 70 63 54 68 72 68 69 64 68 38 48 64 83 117 88 69 76 67 60 58 46 60 83 88 88 79 79
8 15 18 20 22 24 27 29 27 21 32 36 27 29 40 45 44 50 59 61 64 58 62 64 66 66 64 58 51 49 48 52 44 49 98 100 99 98 92 92 85 71 51 51 53 50 51 58 61 55 65 62 62 46 41 67 50 60 91 81 65 92 92 87 80 68 65 58 64 95 95 83 73 78
7 13 16 23 21 21 23 23 24 23 27 38 35 28 30 41 47 50 64 65 58 49 44 53 59 61 58 56 55 54 53 43 34 31 60 86 96 95 97 89 89 93 85 68 64 58 57 59 71 68 64 57 59 23 31 40 23 59 75 57 80 81 71 79 85 79 66 67 49 65 78 87 82 81
20 22 26 19 22 22 23 22 22 19 22 27 34 31 21 28 40 44 45 57 56 49 48 44 41 48 55 58 54 52 50 40 32 22 42 39 68 85 90 104 121 118 111 94 80 73 65 60 57 68 67 59 53 49 54 57 43 46 65 62 67 72 63 65 89 95 68 65 59 73 90 85 100 100
29 30 29 26 21 20 25 28 27 22 22 27 27 27 26 30 34 38 42 47 48 49 51 46 49 42 47 48 46 50 51 40 35 31 43 42 53 67 64 81 85 89 91 97 98 103 95 82 77 72 77 71 63 54 47 53 43 33 42 69 75 79 68 61 37 67 81 102 94 46 71 96 110 127
31 24 32 25 23 23 27 30 26 26 29 29 32 32 35 37 37 40 44 39 44 52 55 49 44 42 46 44 38 47 44 50 37 30 32 47 48 59 61 71 78 91 100 97 115 134 124 115 109 99 69 67 66 58 53 48 50 16 26 43 63 65 50 49 40 43 80 83 85 87 74 86 115 142
33 32 34 27 23 20 26 27 26 27 30 27 29 31 40 40 35 42 44 42 61 62 64 68 65 63 62 63 61 55 49 45 40 35 38 37 45 45 48 62 91 96 95 99 101 89 105 123 129 126 119 97 81 52 10 7 33 37 50 42 36 65 36 26 9 57 84 74 110 119 121 171 145 88
39 39 40 38 31 27 23 22 23 27 30 31 30 28 39 42 34 45 50 53 61 67 74 80 81 82 84 86 87 88 88 87 84 64 61 46 58 59 62 49 66 74 75 88 81 58 58 73 69 99 130 119 101 105 84 309 0 12 84 71 28 32 58 36 29 40 83 102 83 125 172 155 102 64
30 38 46 50 50 45 35 27 26 31 30 28 31 30 37 40 43 47 48 53 56 57 58 65 76 76 81 86 86 83 77 65 69 70 63 62 59 45 51 53 27 82 110 104 99 100 79 72 71 69 78 108 121 121 123 295 1 345 352 84 86 332 31 42 30 43 341 143 169 224 108 105 128 136
41 36 34 41 57 61 55 51 45 40 40 42 44 47 44 46 42 42 44 49 48 52 50 58 59 66 69 68 76 79 68 57 55 49 45 33 47 66 51 58 62 53 51 34 59 53 64 64 52 55 64 83 109 147 149 150 159 210 353 29 73 58 28 72 345 323 291 349 341 68 62 95 73 83
43 52 48 45 38 46 67 81 73 60 51 44 45 46 49 47 50 54 56 50 48 35 44 43 46 53 66 71 65 56 59 69 72 66 56 49 40 49 42 41 70 61 60 62 70 58 61 57 57 76 92 106 115 111 113 120 123 94 66 23 47 79 80 75 49 53 11 2 359 104 106 115 105 75
46 39 43 54 52 44 38 48 65 76 65 57 54 51 51 47 47 49 56 63 60 60 48 29 29 32 23 8 100 102 96 83 75 72 66 48 42 32 46 35 45 94 87 80 82 75 61 77 157 100 75 121 109 65 40 51 99 141 130 164 29 66 61 54 69 76 89 332 16 96 155 198 183 166
27 46 40 33 55 66 55 50 54 54 55 54 66 76 66 53 52 54 69 52 62 36 333 334 345 29 49 52 51 54 65 58 60 43 51 75 46 17 8 18 53 78 91 93 96 110 125 87 64 54 59 52 62 101 169 177 188 169 158 154 332 349 45 60 51 41 40 62 70 45 5 348 22 71
18 33 45 36 25 40 63 77 76 74 67 58 56 73 94 231 277 284 258 76 41 37 34 32 33 40 42 53 62 67 59 46 40 48 45 37 50 66 37 29 24 121 116 121 123 130 137 148 147 138 85 348 251 114 107 106 114 132 132 142 216 293 16 73 76 46 20 19 99 140 160 160 85 4
5 5 24 31 44 34 32 38 79 118 138 173 240 255 90 27 9 19 44 47 47 55 54 43 44 67 62 53 51 53 71 82 80 72 59 41 24 27 60 21 24 88 127 127 125 124 126 134 158 147 129 94 78 76 73 53 71 108 144 166 169 151 194 129 52 354 318 291 252 126 126 182 203 159
8 10 14 14 17 15 10 15 6 38 145 102 128 127 95 74 68 43 23 28 30 25 25 22 23 39 47 54 56 57 334 334 9 111 135 119 109 20 352 334 60 72 80 108 130 144 149 145 158 90 81 90 86 100 85 87 96 114 114 126 156 185 166 146 155 180 245 292 275 194 195 186 224 263